[Iaude] MPEC W25: 2023 WK [a=2.65,e=0.70,i=8.1,H=24.6]
    mpec at marsden.cfa.harvard.edu 
    mpec at marsden.cfa.harvard.edu
       
    Sat Nov 18 19:08:07 EST 2023
    
    
  
M.P.E.C. 2023-W25                             Issued 2023 November 19, 00:06 UT
     The Minor Planet Electronic Circulars contain information on unusual
         minor planets, routine data on comets and natural satellites,
         and occasional editorial announcements.  They are published
    on behalf of Division F of the International Astronomical Union by the
          Minor Planet Center, Smithsonian Astrophysical Observatory,
                          Cambridge, MA 02138, U.S.A.
			  
             Prepared using the Tamkin Foundation Computer Network
                              MPC at CFA.HARVARD.EDU
            URL https://www.minorplanetcenter.net/    ISSN 1523-6714
                                    2023 WK                                     
Observations:
     K23W00K* C2023 11 17.38900703 29 49.502+02 06 01.03         20.73wXEW025F52
     K23W00K  C2023 11 17.40220703 29 49.717+02 08 42.34         20.23wXEW025F52
     K23W00K  C2023 11 17.41539503 29 49.919+02 11 23.47         20.37wXEW025F52
     K23W00K  C2023 11 17.51906503 29 51.708+02 32 13.31         19.99GVEW025F52
     K23W00K  C2023 11 17.51970703 29 51.717+02 32 20.80         20.39GVEW025F52
     K23W00K  C2023 11 17.52724803 29 51.879+02 33 50.82         20.14GVEW025F52
     K23W00K  C2023 11 17.52788903 29 51.904+02 33 58.36         20.17GVEW025F52
     K23W00K KB2023 11 17.94853303 30 18.08 +03 53 47.7          19.7 GXEW025958
     K23W00K KB2023 11 17.95645203 30 18.31 +03 55 14.9          19.7 GXEW025958
     K23W00K KB2023 11 17.96434803 30 18.37 +03 56 42.8          19.5 GXEW025958
     K23W00K KC2023 11 18.00029403 30 18.01 +04 03 13.8          20.1 GVEW025L01
     K23W00K KC2023 11 18.00260703 30 18.10 +04 03 38.5          20.1 GVEW025L01
     K23W00K KC2023 11 18.00513203 30 18.15 +04 04 05.7          20.2 GVEW025L01
     K23W00K KC2023 11 18.00780503 30 18.18 +04 04 35.3          20.2 GVEW025L01
     K23W00K KC2023 11 18.01047603 30 18.21 +04 05 04.7          20.0 GVEW025L01
     K23W00K 1C2023 11 18.01112 03 30 18.56 +04 05 05.3          20.1 VXEW025033
     K23W00K 1C2023 11 18.01170 03 30 18.58 +04 05 11.6          20.2 VXEW025033
     K23W00K 1C2023 11 18.01227 03 30 18.62 +04 05 17.6          20.5 VXEW025033
     K23W00K 1C2023 11 18.01289 03 30 18.62 +04 05 23.8          20.2 VXEW025033
     K23W00K HC2023 11 18.03401 03 30 19.16 +04 09 19.3          20.5 GVEW025204
     K23W00K KC2023 11 18.19728203 30 29.78 +04 38 31.5          20.7 GVEW025H21
     K23W00K KC2023 11 18.20846703 30 29.97 +04 40 29.0          20.5 GVEW025H21
     K23W00K KC2023 11 18.21135703 30 30.01 +04 40 59.3          20.5 GVEW025H21
     K23W00K KB2023 11 18.24629 03 30 31.26 +04 47 05.6          20.2 GVEW025734
     K23W00K KB2023 11 18.26335 03 30 31.54 +04 50 03.3          20.2 GVEW025734
     K23W00K KB2023 11 18.26897 03 30 31.63 +04 51 02.3          19.7 GVEW025734
     K23W00K KC2023 11 18.94559703 31 01.834+06 41 08.42         20.6 GVEW025K63
     K23W00K KC2023 11 18.95628803 31 02.031+06 42 47.69         20.7 GVEW025K63
Observer details:
033 Karl Schwarzschild Observatory, Tautenburg.  Observers S. Melnikov, C.
    Hogner, F. Ludwig, M. Hartmann, B. Stecklum.  Measurer B. Stecklum.
    1.34-m f/3 Schmidt + CCD.
204 Schiaparelli Observatory.  Observers L. Buzzi, G. Galli.  0.84-m f/3.5
    reflector + CCD.
734 Farpoint Observatory, Eskridge.  Observers D. Cromer, G. Hug, D. Goodin,
    R. Valentine.  Measurer D. Cromer.  0.69-m f/3.54 reflector + CMO.
958 Observatoire de Dax.  Observer P. Dupouy.  0.50-m f/4.5 Reflector + CMO.
F52 Pan-STARRS 2, Haleakala.  Observers J. Herman, T. Lowe, P. Minguez, A.
    Schultz, I. Smith.  Measurers K. Chambers, T. de Boer, J. Fairlamb, H.
    Gao, M. Huber, C.-C. Lin, E. Magnier, Y. Ramanjooloo, R. Wainscoat, R.
    Weryk.  1.8-m Ritchey-Chretien + CCD.
H21 Astronomical Research Observatory, Westfield.  Observer R. Holmes.
    Measurers T. Linder, R. Holmes, L. Horn.  0.76-m f/3.0 astrograph + CCD.
K63 G. Pascoli Observatory, Castelvecchio Pascoli.  Observer R. Bacci.  0.41-m
    f/3.75 0.41m f/3.2  Newton + CCD.
L01 Visnjan Observatory, Tican.  Observer K. Korlevic.  1.0-m f/2.9 reflector
    + CCD.
Orbital elements:
2023 WK                                                  Earth MOID = 0.0446 AU
Epoch 2023 Sept. 13.0 TT = JDT 2460200.5                MPC                     
M 355.71910              (2000.0)            P               Q                  
n   0.22838130     Peri.  282.50313     +0.96219152     +0.24148512             
a   2.6507108      Node    63.63641     -0.16123341     +0.87778180             
e   0.6985728      Incl.    8.08315     -0.21952511     +0.41374394             
P   4.32           H   24.60          G   0.15           U   9                  
Residuals in seconds of arc
231117 F52  0.2-  0.2+    231118 L01  0.5-  0.3+    231118 H21  0.1+  0.0
231117 F52  0.1-  0.0     231118 L01  0.1+  0.2-    231118 H21  0.1+  0.1-
231117 F52  0.1-  0.2+    231118 L01  0.0   0.5-    231118 H21  0.1-  0.1-
231117 F52  0.3+  0.0     231118 L01  0.4-  0.0     231118 734  0.1-  0.0
231117 F52  0.3+  0.1-    231118 L01  0.9-  0.4+    231118 734  0.1-  0.1+
231117 F52  0.2+  0.0     231118 033  0.4-  0.5+    231118 734  0.1-  0.7+
231117 F52  0.4+  0.1-    231118 033  0.3-  0.5+    231118 K63  0.1+  0.5-
231117 958  0.1-  0.4-    231118 033  0.1+  0.3+    231118 K63  0.6+  0.5+
231117 958  0.9+  0.4-    231118 033  0.1-  0.3-
231117 958  0.7-  0.7+    231118 204  0.3-  0.1+
Ephemeris:
2023 WK                  a,e,i = 2.65, 0.70, 8                   q = 0.7990
Date    TT    R. A. (2000) Decl.     Delta      r    Elong.  Phase     V
2023 10 20    15 39 34.5 -43 39 13   0.2162  0.8505    42.9   127.1    26.4
...
2023 11 04    16 15 43.0 -71 00 11   0.07442 0.9546    58.0   118.3    23.6
...
2023 11 12    03 19 46.3 -31 31 12   0.05109 1.0242   130.9    46.9    20.0
...
2023 11 18    03 30 19.3 +04 04 03   0.09474 1.0805   165.0    13.7    20.4
2023 11 19    03 31 03.7 +06 50 11   0.1039  1.0901   167.5    11.3    20.6
2023 11 20    03 31 41.6 +09 09 39   0.1133  1.0998   169.5     9.4    20.7
...
2023 11 26    03 34 15.7 +17 39 34   0.1733  1.1590   172.2     6.6    21.6
...
2023 12 04    03 36 44.4 +22 39 14   0.2607  1.2400   165.7    11.3    22.8
...
2023 12 19    03 43 11.2 +26 19 19   0.4459  1.3944   152.4    19.1    24.5
A. U. Tomatic                (C) Copyright 2023 MPC           M.P.E.C. 2023-W25
    
    
More information about the Iaude
mailing list